Hlavní strana
METAR-TAF:

METAR-TAF

Letiště :

Rantoul National Aviation Center Airport (Frank Elliott Field)

Rantoul, Illinois, Spojené státy americké

zeměpisná šířka: 40-17-37N, zeměpisná délka: 088-08-33W, výška: 225 m

Aktuální stav počasí

Zpráva byla vytvořena před 29 minutami, v 10:35 UTC
Západní vítr 15 kt
Teplota -8°C
Vlhkost vzduchu 79%
Tlak 1018 hPa
Viditelnost: 16.1 km
Jasno

METAR: KTIP 101035Z AUTO 28015KT 10SM CLR M08/M11 A3006 RMK AO2 T10791113

Čas: 05:04 (11:04 UTC)


TAF: chybějící

Stav a předpovědi počasí z více než 4 000 letišť (zprávy METAR a TAF).

Červené a žluté tečky na mapě představují dostupné meteorologické stanice.

Když kurzor umístíte na tečku, zobrazí se název stanice.

Pak kliknutím zobrazíte stav a předpověď počasí.

Chcete-li změnit mapu, kliknutím na zelené tlačítko se znaménkem +mapu přiblížíte, kliknutím na zelené tlačítko se znaménkem – mapu oddálíte a kliknutím na zelené šipky přejdete na sousední mapy.


METAR-TAF: